sat.trackr.live / text

‹ back to catalog

STARLINK-5482

NORAD 56358 · 2023-058AT

PAYLOAD ACTIVE UNKNOWN

§ Identity

Operator
Country
US
Launch date
2023-04-27
Launch site
AFWTR
Launch vehicle
Mass (kg)
RCS (m²)

Purposes: comms

External: N2YO · Heavens-Above · Gunter

§ Orbital elements

Epoch: 2026-05-24T23:01:43.338432Z

Period
95.63 min
Inclination
97.4532°
Eccentricity
0.0001440
Mean motion
15.05728135 rev/d
Perigee alt
548.3 km
Apogee alt
550.3 km
Semi-major
6,927.4 km
B*
-1.4211e-3
RAAN
144.9777°
Arg perigee
19.0292°
Mean anomaly
341.0989°
Rev number
16,960

§ Raw data

STARLINK-54821 56358U 23058AT  26144.95952938 -.00020548  00000+0 -14211-2 0  99932 56358  97.4532 144.9777 0001440  19.0292 341.0989 15.05728135169603

JSON: /api/v1/satellites/56358 · /tle

For live sub-satellite position, see the globe view (requires WebGL).

§ Visibility from observer

Set your observer location to see the next 7 days of passes ≥ 10°. The values pass through the URL so the page stays shareable.

No JS? Fill the form by hand. The geolocation button needs JavaScript.